TimeEDT,TemperatureF,Dew PointF,Humidity,Sea Level PressureIn,VisibilityMPH,Wind Direction,Wind SpeedMPH,Gust SpeedMPH,PrecipitationIn,Events,Conditions,WindDirDegrees,DateUTC
12:53 AM,72.5,70.3,93,30.05,10.0,ESE,20.7,29.9,0.00,,Scattered Clouds,110,2013-05-30 04:53:00
1:53 AM,73.2,70.5,91,30.04,10.0,ESE,21.9,27.6,N/A,,Mostly Cloudy,110,2013-05-30 05:53:00
2:53 AM,77.0,70.9,81,30.01,10.0,ESE,25.3,29.9,N/A,,Partly Cloudy,110,2013-05-30 06:53:00
3:53 AM,77.5,72.1,83,30.01,10.0,ESE,27.6,-,N/A,,Mostly Cloudy,110,2013-05-30 07:53:00
4:53 AM,78.1,70.3,77,30.01,10.0,ESE,21.9,-,N/A,,Partly Cloudy,110,2013-05-30 08:53:00
5:29 AM,78.8,71.6,78,30.01,10.0,ESE,24.2,27.6,N/A,,Mostly Cloudy,110,2013-05-30 09:29:00
5:53 AM,77.5,73.2,86,30.01,10.0,ESE,20.7,25.3,N/A,,Scattered Clouds,110,2013-05-30 09:53:00
6:22 AM,77.0,73.4,89,30.01,10.0,East,24.2,-,N/A,,Mostly Cloudy,100,2013-05-30 10:22:00
6:36 AM,77.0,73.4,89,30.01,10.0,ESE,21.9,-,N/A,,Scattered Clouds,120,2013-05-30 10:36:00
6:53 AM,77.2,72.0,84,30.02,10.0,ESE,24.2,-,N/A,,Scattered Clouds,110,2013-05-30 10:53:00
7:53 AM,78.4,72.5,82,30.03,10.0,ESE,18.4,-,N/A,,Scattered Clouds,110,2013-05-30 11:53:00
8:53 AM,79.5,72.3,79,30.05,10.0,ESE,18.4,-,N/A,,Mostly Cloudy,120,2013-05-30 12:53:00
9:25 AM,78.8,73.4,83,30.05,10.0,ESE,18.4,-,N/A,,Mostly Cloudy,120,2013-05-30 13:25:00
9:53 AM,81.3,74.5,80,30.05,10.0,ESE,18.4,-,N/A,,Mostly Cloudy,120,2013-05-30 13:53:00
10:02 AM,80.6,75.2,84,30.05,10.0,ESE,19.6,-,N/A,,Mostly Cloudy,120,2013-05-30 14:02:00
10:22 AM,82.4,69.8,66,30.05,10.0,ESE,19.6,-,N/A,,Mostly Cloudy,120,2013-05-30 14:22:00
10:53 AM,82.9,68.9,62,30.06,10.0,ESE,19.6,-,N/A,,Mostly Cloudy,120,2013-05-30 14:53:00
11:53 AM,78.8,68.9,72,30.06,10.0,ESE,19.6,-,0.00,Rain,Rain,120,2013-05-30 15:53:00
12:53 PM,81.5,73.8,77,30.05,10.0,ESE,19.6,-,N/A,,Mostly Cloudy,110,2013-05-30 16:53:00
1:53 PM,84.4,74.3,72,30.04,10.0,East,23.0,-,N/A,,Mostly Cloudy,100,2013-05-30 17:53:00
2:53 PM,81.1,74.3,80,30.03,10.0,East,21.9,-,N/A,,Mostly Cloudy,100,2013-05-30 18:53:00
3:53 PM,79.9,73.6,81,30.01,10.0,East,21.9,-,N/A,,Mostly Cloudy,100,2013-05-30 19:53:00
4:53 PM,79.0,72.9,81,30.00,10.0,East,28.8,32.2,N/A,,Mostly Cloudy,90,2013-05-30 20:53:00
5:53 PM,78.6,70.0,75,30.01,10.0,ESE,25.3,-,0.02,,Mostly Cloudy,110,2013-05-30 21:53:00
6:53 PM,78.8,70.5,76,30.00,10.0,East,24.2,-,N/A,,Scattered Clouds,100,2013-05-30 22:53:00
7:53 PM,78.8,70.3,75,30.02,10.0,ESE,25.3,-,N/A,,Mostly Cloudy,110,2013-05-30 23:53:00
8:53 PM,78.4,69.6,74,30.04,10.0,East,20.7,-,N/A,,Scattered Clouds,90,2013-05-31 00:53:00
9:53 PM,77.7,66.6,68,30.05,10.0,East,17.3,-,N/A,,Scattered Clouds,100,2013-05-31 01:53:00
10:53 PM,77.7,70.0,77,30.05,10.0,East,24.2,-,N/A,,Scattered Clouds,100,2013-05-31 02:53:00
11:53 PM,77.7,69.6,76,30.06,10.0,ESE,19.6,-,N/A,,Scattered Clouds,110,2013-05-31 03:53:00